Siga o Apolo11 no Facebook   Siga o Apolo11 no Twiiter
Ciência, Espaço e Tecnologia




Elementos Keplerianos formato Two Line

Para que um programa de rastreio possa saber a localização exata de qualquer satélite no espaço e assim poder rastreá-lo corretamente, é necessário que ele seja carregado com algumas informações.

Estas informações são chamadas de Elementos Orbitais ou Elementos Keplerianos e consistem em 2 linhas com dezenas de números. Esses números nada mais são que os parâmetros orbitais do satélite, tais como altitude, atitude, excentricidade da órbita, número de órbitas por dia, etc.

Com base nestas informações o programa é capaz de determinar com bastante exatidão a posição de qualquer satélite no espaço e nos informar em qual horário este estará dentro do alcance de nossa estação. Para que isso seja feito com precisão é necessário que os dados estejam sempre bem atualizadas.

Devido aos parâmetros orbitais serem descritos em 2 linhas, estes formato é também conhecido internacionalmente por 2line (leia-se Two Line”).

Para atualizar seu programa de rastreio basta copiar os dados disponibilizados e fornece-los ao programa. Nossos elementos orbitais são atualizados diariamente.

NOAATodos os satélites ambientais da série NOAA
30 DiasSatélites lançados nos últimos 30 dias
ISSSatélites e foguetes relacionados à Estação Espacial Internacional
HAMSatélites construídos por radiomadores
CUBESatélites tipo cubo, com 10 centímetros de lado
METEOSatélites voltados à previsão do tempo
EDUSatélites construídos e operados por universidades
VIS100 satélites mais brilhantes que podem ser vistos a olho nú



Satélites Meteorológicos
NOAA 15                 
1 25338U 98030A   24295.12553556  .00000454  00000+0  20533-3 0  9993
2 25338  98.5599 319.5848 0009500 321.6051  38.4453 14.26757352375394
DMSP 5D-3 F16 (USA 172) 
1 28054U 03048A   24295.18059069  .00000428  00000+0  24866-3 0  9996
2 28054  99.0229 302.8551 0008226  61.2893  71.7188 14.14163031 84089
NOAA 18                 
1 28654U 05018A   24295.22506925  .00000501  00000+0  28982-3 0  9999
2 28654  98.8652  11.0965 0015062  68.3124 291.9651 14.13380374  1069
METEOSAT-9 (MSG-2)      
1 28912U 05049B   24294.96855191  .00000122  00000+0  00000+0 0  9998
2 28912   7.9748  59.7724 0002429 178.4580 186.0469  1.00270717 69029
EWS-G1 (GOES 13)        
1 29155U 06018A   24294.13521899 -.00000139  00000+0  00000+0 0  9998
2 29155   2.9496  83.7430 0062514 255.8951 107.2586  0.98832234 37279
DMSP 5D-3 F17 (USA 191) 
1 29522U 06050A   24295.16357096  .00000464  00000+0  26385-3 0  9990
2 29522  98.7449 303.1560 0009748 347.1155  12.9768 14.14623213927003
FENGYUN 3A              
1 32958U 08026A   24294.88246901  .00000633  00000+0  32226-3 0  9991
2 32958  98.6177 238.4432 0009899  71.8398 288.3855 14.19240048849782
NOAA 19                 
1 33591U 09005A   24295.12382939  .00000600  00000+0  34524-3 0  9990
2 33591  99.0322 352.1733 0012894 298.8912  61.0966 14.13164469809414
GOES 14                 
1 35491U 09033A   24294.55433656 -.00000069  00000+0  00000+0 0  9999
2 35491   0.1102  91.7158 0003763  99.7135 289.0798  1.00270583   539
DMSP 5D-3 F18 (USA 210) 
1 35951U 09057A   24295.12751087  .00000587  00000+0  32991-3 0  9993
2 35951  98.8308 268.8900 0011186 162.4627 197.6934 14.14334323774161
EWS-G2 (GOES 15)        
1 36411U 10008A   24294.91993987  .00000033  00000+0  00000+0 0  9994
2 36411   0.2740 274.0163 0006956 319.0583 189.2925  1.00273154 53588
COMS 1                  
1 36744U 10032A   24294.77037212 -.00000347  00000+0  00000+0 0  9993
2 36744   3.2717  83.0853 0000998 140.8970 211.2333  1.00271441 45024
FENGYUN 3B              
1 37214U 10059A   24295.18034753  .00000264  00000+0  16089-3 0  9993
2 37214  99.0450 324.9821 0023188  96.5933 306.2185 14.14597243722064
SUOMI NPP               
1 37849U 11061A   24295.13908771  .00000323  00000+0  17396-3 0  9994
2 37849  98.7316 231.2660 0000485 133.9811 226.1405 14.19535807672738
FENGYUN 2F              
1 38049U 12002A   24295.22349390  .00000049  00000+0  00000+0 0  9994
2 38049   6.0520  72.7340 0002718 148.9513 138.0266  0.99134835 46818
METEOSAT-10 (MSG-3)     
1 38552U 12035B   24294.14077036 -.00000009  00000+0  00000+0 0  9991
2 38552   3.2488  61.6170 0001022 213.9718 164.2033  1.00269652 44791
METOP-B                 
1 38771U 12049A   24295.16893269  .00000390  00000+0  19757-3 0  9991
2 38771  98.6129 349.4738 0001460  94.1969 265.9375 14.21551232627446
INSAT-3D                
1 39216U 13038B   24294.81577292 -.00000343  00000+0  00000+0 0  9997
2 39216   0.3563  91.1493 0002280 138.5816 223.2118  1.00275347 41240
FENGYUN 3C              
1 39260U 13052A   24295.20393276  .00000287  00000+0  16515-3 0  9992
2 39260  98.4378 288.1870 0010463 329.1596  30.8963 14.16316166573160
METEOR-M 2              
1 40069U 14037A   24295.13745654  .00000416  00000+0  21051-3 0  9993
2 40069  98.4482 283.8204 0005813   5.0495 355.0740 14.21099278533517
HIMAWARI-8              
1 40267U 14060A   24294.83318535 -.00000280  00000+0  00000+0 0  9996
2 40267   0.0076 226.0425 0001167   9.8461 234.5017  1.00272781 36704
FENGYUN 2G              
1 40367U 14090A   24294.84025655 -.00000305  00000+0  00000+0 0  9997
2 40367   4.0971  80.0775 0002044 173.2967 178.1949  1.00281099 35934
METEOSAT-11 (MSG-4)     
1 40732U 15034A   24294.30743817  .00000059  00000+0  00000+0 0  9995
2 40732   1.6874  71.0265 0000999 155.4591 282.8235  1.00266262  1154
ELEKTRO-L 2             
1 41105U 15074A   24294.20952157 -.00000118  00000+0  00000+0 0  9999
2 41105   5.1582  77.9244 0003750 171.5312 200.6739  1.00270732 32444
INSAT-3DR               
1 41752U 16054A   24294.91438569 -.00000082  00000+0  00000+0 0  9990
2 41752   0.1458  91.2022 0013529 173.0778 168.7593  1.00271646 29757
HIMAWARI-9              
1 41836U 16064A   24294.83315457 -.00000279  00000+0  00000+0 0  9993
2 41836   0.0517 135.1789 0001138 106.3624 228.9540  1.00270226 29153
GOES 16                 
1 41866U 16071A   24294.38591231 -.00000252  00000+0  00000+0 0  9991
2 41866   0.0432 287.9288 0001078 346.2853 178.8679  1.00270750 29040
FENGYUN 4A              
1 41882U 16077A   24294.90327159 -.00000198  00000+0  00000+0 0  9998
2 41882   0.7749  85.7660 0007547 340.5047  15.0631  1.00261407 28861
CYGFM05                 
1 41884U 16078A   24294.91566431  .00024528  00000+0  78733-3 0  9994
2 41884  34.9629 222.9000 0013434 268.6175  91.3002 15.31293053435330
CYGFM04                 
1 41885U 16078B   24294.89038475  .00024597  00000+0  76475-3 0  9991
2 41885  34.9367 205.7680 0011868 283.1276  76.8116 15.32328192435435
CYGFM02                 
1 41886U 16078C   24294.88628809  .00027762  00000+0  85086-3 0  9992
2 41886  34.9455 207.7212 0014688 275.5958  84.3084 15.32726531435529
CYGFM01                 
1 41887U 16078D   24294.91577877  .00023945  00000+0  77468-3 0  9999
2 41887  34.9475 226.8979 0013222 255.0219 104.9034 15.31046752435264
CYGFM08                 
1 41888U 16078E   24294.91825908  .00024784  00000+0  77461-3 0  9996
2 41888  34.9480 213.8611 0014824 274.7884  85.1140 15.32121420435451
CYGFM07                 
1 41890U 16078G   24294.86712725  .00027705  00000+0  85564-3 0  9994
2 41890  34.9500 205.2395 0012734 288.9123  71.0213 15.32512187435440
CYGFM03                 
1 41891U 16078H   24294.91059127  .00024562  00000+0  76251-3 0  9992
2 41891  34.9458 206.2603 0011224 276.9094  83.0346 15.32384629435430
FENGYUN 3D              
1 43010U 17072A   24295.13385632  .00000377  00000+0  20075-3 0  9991
2 43010  98.9276 250.6202 0001626  18.5187 341.6047 14.19465689359288
NOAA 20 (JPSS-1)        
1 43013U 17073A   24295.15624327  .00000302  00000+0  16388-3 0  9994
2 43013  98.7158 231.0026 0001146 150.6540 209.4701 14.19542448358773
GOES 17                 
1 43226U 18022A   24294.55702753 -.00000095  00000+0  00000+0 0  9998
2 43226   0.0485  60.1808 0003194 174.5850 250.5999  1.00272513 24361
FENGYUN 2H              
1 43491U 18050A   24295.10604899 -.00000131  00000+0  00000+0 0  9998
2 43491   1.4671  86.0427 0001935 138.9028 282.4173  1.00267328 23458
METOP-C                 
1 43689U 18087A   24295.13728936  .00000528  00000+0  26154-3 0  9990
2 43689  98.7088 352.8504 0002563  91.7739 268.3732 14.21482125309015
GEO-KOMPSAT-2A          
1 43823U 18100A   24294.77037200 -.00000348  00000+0  00000+0 0  9991
2 43823   0.0583  59.3716 0001127  86.8917 289.0697  1.00272638 21563
METEOR-M2 2             
1 44387U 19038A   24295.13945523  .00000428  00000+0  20606-3 0  9991
2 44387  98.8447 264.9636 0001130  18.1059 342.0159 14.24026441275313
ARKTIKA-M 1             
1 47719U 21016A   24293.87048965  .00000086  00000+0  00000+0 0  9997
2 47719  63.1338 137.2764 6987627 268.5129  17.6385  2.00612000 26641
FENGYUN 3E              
1 49008U 21062A   24295.14222162  .00000108  00000+0  71598-4 0  9996
2 49008  98.7387 294.7700 0002360  53.9783 306.1612 14.19801732170867
GOES 18                 
1 51850U 22021A   24294.64055205  .00000092  00000+0  00000+0 0  9993
2 51850   0.0538  59.2831 0000836 213.9206 210.0133  1.00273385   532
NOAA 21 (JPSS-2)        
1 54234U 22150A   24294.91117884  .00000470  00000+0  24398-3 0  9997
2 54234  98.7612 231.3691 0001994 106.7121 253.4274 14.19543871100819
METEOSAT-12 (MTG-I1)    
1 54743U 22170C   24294.30743817 -.00000009  00000+0  00000+0 0  9997
2 54743   0.6147  44.5397 0001588 126.0780 329.1083  1.00274294  6912
TIANMU-1 03             
1 55973U 23039A   24295.16676457  .00017015  00000+0  65058-3 0  9990
2 55973  97.4818  85.4312 0005480  98.3461 261.8399 15.26651835 88049
TIANMU-1 04             
1 55974U 23039B   24295.14148030  .00016129  00000+0  61434-3 0  9999
2 55974  97.4743  84.8578 0006508  95.2251 264.9730 15.26786830 88035
TIANMU-1 05             
1 55975U 23039C   24295.13400829  .00016337  00000+0  62502-3 0  9994
2 55975  97.4789  85.2377 0005180 114.0405 246.1376 15.26644371 88024
